Wooster, OH

4:05 PM EDT on March 26, 2017 (GMT -0400)
Wayne County

Weather History for KBJJ - October, 2013

Change the Weather History Date:

Friday, October 4, 2013

  Actual Average Record
Temperature  
Mean Temperature 70 °F -  
Max Temperature 80 °F 65 °F 84 °F (2007)
Min Temperature 62 °F 40 °F 36 °F (2004)
Cooling Degree Days 6    
Growing Degree Days 20 (Base 50)    
Moisture  
Dew Point 64 °F    
Average Humidity 84    
Maximum Humidity 97    
Minimum Humidity 61    
Precipitation  
Precipitation 0.00 in - - ()
Sea Level Pressure  
Sea Level Pressure 30.07 in    
Wind  
Wind Speed 4 mph (SW)    
Max Wind Speed 10 mph    
Max Gust Speed -    
Visibility 7 miles    
Events Rain    
Averages and records for this station are not official NWS values.
T = Trace of Precipitation, MM = Missing Value Source: NWS Daily Summary

Daily Weather History Graph

Daily Weather History Graph

Search for Another Location

Airport or City:

Trip Planner

Search our weather history database for the weather conditions in past years. The results will help you decide how hot, cold, wet, or windy it might be!

Date:

Astronomy

Oct. 04, 2013 Rise Set
Actual Time 7:27 AM EDT 7:04 PM EDT
Civil Twilight 7:00 AM EDT 7:31 PM EDT
Nautical Twilight 6:28 AM EDT 8:03 PM EDT
Astronomical Twilight 5:56 AM EDT 8:35 PM EDT
Moon 7:01 AM EDT (10/4) 6:45 PM EDT (10/4)
Length of Visible Light 12h 31m
Length of Day
11h 36m
Waning Crescent, 0% of the Moon is Illuminated
Oct 4
Waning Crescent
Oct 4
New
Oct 11
First Quarter
Oct 18
Full
Oct 26
Last Quarter

Hourly Weather History & Observations

Time (EDT) Temp. Dew Point Humidity Pressure Visibility Wind Dir Wind Speed Gust Speed Precip Events Conditions
12:56 AM 66.0 °F 64.0 °F 93% 30.04 in 6.0 mi South 3.5 mph - 0.00 in Rain Light Rain
1:56 AM 64.9 °F 64.0 °F 97% 30.04 in 4.0 mi Calm Calm - 0.00 in   Partly Cloudy
2:56 AM 64.0 °F 63.0 °F 96% 30.04 in 4.0 mi SSW 3.5 mph - N/A   Clear
3:56 AM 64.0 °F 62.1 °F 93% 30.04 in 4.0 mi SW 3.5 mph - N/A   Partly Cloudy
4:56 AM 63.0 °F 62.1 °F 97% 30.05 in 4.0 mi SW 3.5 mph - N/A   Scattered Clouds
5:56 AM 64.0 °F 62.1 °F 93% 30.06 in 5.0 mi SW 3.5 mph - N/A   Scattered Clouds
6:56 AM 63.0 °F 62.1 °F 97% 30.07 in 4.0 mi Calm Calm - N/A   Clear
7:36 AM 62.6 °F 60.8 °F 94% 30.09 in 2.5 mi Calm Calm - N/A   Clear
7:56 AM 63.0 °F 62.1 °F 97% 30.09 in 2.5 mi Calm Calm - N/A   Clear
8:07 AM 64.4 °F 62.6 °F 94% 30.09 in 3.0 mi SSW 3.5 mph - N/A   Clear
8:56 AM 66.0 °F 64.0 °F 93% 30.10 in 4.0 mi Variable 5.8 mph - N/A   Clear
9:56 AM 69.1 °F 64.9 °F 87% 30.09 in 7.0 mi SW 4.6 mph - N/A   Partly Cloudy
10:56 AM 73.9 °F 66.0 °F 76% 30.08 in 10.0 mi SW 6.9 mph - N/A   Scattered Clouds
11:47 AM 75.2 °F 64.4 °F 69% 30.09 in 10.0 mi WSW 10.4 mph - N/A   Mostly Cloudy
11:56 AM 75.9 °F 64.9 °F 69% 30.08 in 10.0 mi West 6.9 mph - N/A   Mostly Cloudy
12:21 PM 75.2 °F 64.4 °F 69% 30.09 in 10.0 mi WSW 6.9 mph - N/A   Mostly Cloudy
12:56 PM 79.0 °F 64.9 °F 62% 30.07 in 10.0 mi WSW 9.2 mph - N/A   Mostly Cloudy
1:20 PM 77.0 °F 62.6 °F 61% 30.08 in 10.0 mi WSW 8.1 mph - N/A   Mostly Cloudy
1:56 PM 75.0 °F 64.0 °F 69% 30.06 in 8.0 mi WSW 8.1 mph - 0.00 in Rain Light Rain
2:56 PM 73.9 °F 64.0 °F 71% 30.06 in 10.0 mi WSW 4.6 mph - 0.00 in   Mostly Cloudy
3:56 PM 75.0 °F 66.9 °F 76% 30.05 in 10.0 mi SW 5.8 mph - N/A   Partly Cloudy
4:56 PM 73.9 °F 66.0 °F 76% 30.05 in 9.0 mi SSW 5.8 mph - N/A   Clear
5:56 PM 72.0 °F 64.9 °F 78% 30.07 in 10.0 mi SW 3.5 mph - N/A   Clear
6:56 PM 70.0 °F 66.0 °F 87% 30.06 in 8.0 mi Calm Calm - 0.00 in Rain Light Rain
7:56 PM 66.9 °F 64.9 °F 93% 30.07 in 7.0 mi Calm Calm - 0.00 in   Clear
8:56 PM 70.0 °F 66.0 °F 87% 30.04 in 9.0 mi SW 10.4 mph - N/A   Scattered Clouds
9:56 PM 70.0 °F 64.9 °F 84% 30.06 in 10.0 mi North 6.9 mph - 0.00 in   Overcast
10:56 PM 66.9 °F 64.0 °F 90% 30.06 in 8.0 mi East 3.5 mph - N/A   Partly Cloudy
11:56 PM 66.0 °F 64.0 °F 93% 30.07 in 6.0 mi Calm Calm - N/A   Clear